Volver al catálogo

STARLINK-5744

ActivoComunicacionesVLEO
NORAD 55601·PAYLOAD·🇺🇸 United States

Lanzado Feb 12, 2023 desde Cape Canaveral Space Force Station

Loading…

Próximos Pases (próximas 24 horas)

TLE

ActualizadoSource: CelesTrak SupGP

Época: Sep 14, 2026, 20:51 UTC

1 55601C 23020AJ  26257.86923611  .00013267  00000+0  48040-3 0  2576
2 55601  43.0025  17.2679 0001563 271.4901 320.5289 15.27580620    10

Sigue STARLINK-5744 en tiempo real con AllMySat

Download on the App Store